Time,TemperatureF,DewpointF,PressureIn,WindDirection,WindDirectionDegrees,WindSpeedMPH,WindSpeedGustMPH,Humidity,HourlyPrecipIn,Conditions,Clouds,dailyrainin,SoftwareType,DateUTC
2013-04-11 00:00:00,44.4,26.5,29.94,WNW,292,2.7,2.7,49,0.00,,---,0.00,VWS V14.01,2013-04-11 07:00:00,
2013-04-11 00:05:00,44.1,26.1,29.94,West,270,2.0,2.0,49,0.00,,---,0.00,VWS V14.01,2013-04-11 07:05:00,
2013-04-11 00:10:00,43.7,25.8,29.94,West,270,0.0,0.0,49,0.00,,---,0.00,VWS V14.01,2013-04-11 07:10:00,
2013-04-11 00:15:00,43.3,25.5,29.94,WSW,248,0.0,0.0,49,0.00,,---,0.00,VWS V14.01,2013-04-11 07:15:00,
2013-04-11 00:21:00,42.8,26.4,29.94,South,180,0.0,0.0,52,0.00,,---,0.00,VWS V14.01,2013-04-11 07:21:00,
2013-04-11 00:26:00,42.3,25.4,29.97,WSW,248,0.0,0.0,51,0.00,,---,0.00,VWS V14.01,2013-04-11 07:26:00,
2013-04-11 00:31:00,41.7,25.9,29.97,WSW,248,0.0,0.0,53,0.00,,---,0.00,VWS V14.01,2013-04-11 07:31:00,
2013-04-11 00:36:00,41.2,25.4,29.94,SW,225,0.0,0.0,53,0.00,,---,0.00,VWS V14.01,2013-04-11 07:36:00,
2013-04-11 00:41:00,41.0,26.5,29.94,SW,225,0.0,0.0,56,0.00,,---,0.00,VWS V14.01,2013-04-11 07:41:00,
2013-04-11 00:46:00,40.6,26.6,29.94,South,180,0.0,0.0,57,0.00,,---,0.00,VWS V14.01,2013-04-11 07:46:00,
2013-04-11 00:51:00,40.3,27.1,29.97,South,180,0.0,0.0,59,0.00,,---,0.00,VWS V14.01,2013-04-11 07:51:00,
2013-04-11 00:56:00,40.3,27.1,29.97,South,180,0.0,0.0,59,0.00,,---,0.00,VWS V14.01,2013-04-11 07:56:00,
2013-04-11 01:01:00,39.2,26.1,29.97,SW,225,0.0,0.0,59,0.00,,---,0.00,VWS V14.01,2013-04-11 08:01:00,
2013-04-11 01:06:00,39.0,25.9,29.97,SW,225,0.0,0.0,59,0.00,,---,0.00,VWS V14.01,2013-04-11 08:06:00,
2013-04-11 01:12:00,38.3,25.6,29.97,WNW,292,0.0,0.0,60,0.00,,---,0.00,VWS V14.01,2013-04-11 08:12:00,
2013-04-11 01:17:00,38.1,25.9,29.97,SW,225,0.0,0.0,61,0.00,,---,0.00,VWS V14.01,2013-04-11 08:17:00,
2013-04-11 01:22:00,37.8,25.5,30.00,SSW,202,0.0,0.0,61,0.00,,---,0.00,VWS V14.01,2013-04-11 08:22:00,
2013-04-11 01:27:00,37.6,25.8,30.00,SW,225,0.0,0.0,62,0.00,,---,0.00,VWS V14.01,2013-04-11 08:27:00,
2013-04-11 01:32:00,37.8,27.8,30.00,SW,225,0.0,0.0,67,0.00,,---,0.00,VWS V14.01,2013-04-11 08:32:00,
2013-04-11 01:37:00,37.6,27.3,30.00,SW,225,0.0,0.0,66,0.00,,---,0.00,VWS V14.01,2013-04-11 08:37:00,
2013-04-11 01:42:00,37.4,27.5,30.00,SSW,202,0.0,0.0,67,0.00,,---,0.00,VWS V14.01,2013-04-11 08:42:00,
2013-04-11 01:47:00,37.9,28.3,30.00,SE,135,2.7,2.7,68,0.00,,---,0.00,VWS V14.01,2013-04-11 08:47:00,
2013-04-11 01:52:00,37.9,28.0,30.00,South,180,0.0,0.0,67,0.00,,---,0.00,VWS V14.01,2013-04-11 08:52:00,
2013-04-11 01:57:00,37.9,28.0,30.00,ESE,112,2.5,2.5,67,0.00,,---,0.00,VWS V14.01,2013-04-11 08:57:00,
2013-04-11 02:02:00,37.6,28.0,30.00,ESE,112,1.6,1.6,68,0.00,,---,0.00,VWS V14.01,2013-04-11 09:02:00,
2013-04-11 02:08:00,37.9,28.7,30.00,SSW,202,6.3,6.3,69,0.00,,---,0.00,VWS V14.01,2013-04-11 09:08:00,
2013-04-11 02:13:00,38.7,27.9,30.00,SW,225,0.0,0.0,65,0.00,,---,0.00,VWS V14.01,2013-04-11 09:13:00,
2013-04-11 02:18:00,39.2,27.7,30.00,SSW,202,2.0,2.0,63,0.00,,---,0.00,VWS V14.01,2013-04-11 09:18:00,
2013-04-11 02:23:00,39.4,27.1,30.00,SSW,202,2.7,2.7,61,0.00,,---,0.00,VWS V14.01,2013-04-11 09:23:00,
2013-04-11 02:28:00,39.6,26.8,30.00,WSW,248,4.3,4.3,60,0.00,,---,0.00,VWS V14.01,2013-04-11 09:28:00,
2013-04-11 02:33:00,39.9,26.8,30.00,SW,225,5.8,5.8,59,0.00,,---,0.00,VWS V14.01,2013-04-11 09:33:00,
2013-04-11 02:38:00,39.9,26.8,30.00,South,180,5.8,5.8,59,0.00,,---,0.00,VWS V14.01,2013-04-11 09:38:00,
2013-04-11 02:43:00,39.9,26.8,30.00,SW,225,4.3,4.3,59,0.00,,---,0.00,VWS V14.01,2013-04-11 09:43:00,
2013-04-11 02:48:00,39.9,27.6,30.00,SW,225,7.2,7.2,61,0.00,,---,0.00,VWS V14.01,2013-04-11 09:48:00,
2013-04-11 02:53:00,39.9,28.4,29.97,SSW,202,5.8,5.8,63,0.00,,---,0.00,VWS V14.01,2013-04-11 09:53:00,
2013-04-11 02:58:00,39.7,28.6,29.97,SW,225,3.4,3.4,64,0.00,,---,0.00,VWS V14.01,2013-04-11 09:58:00,
2013-04-11 03:03:00,39.7,29.0,29.97,SW,225,5.4,5.4,65,0.00,,---,0.00,VWS V14.01,2013-04-11 10:03:00,
2013-04-11 03:08:00,39.6,29.1,30.00,SW,225,5.4,5.4,66,0.00,,---,0.00,VWS V14.01,2013-04-11 10:08:00,
2013-04-11 03:13:00,39.4,29.0,30.00,SW,225,6.5,6.5,66,0.00,,---,0.00,VWS V14.01,2013-04-11 10:13:00,
2013-04-11 03:18:00,39.4,29.7,30.00,SW,225,2.7,2.7,68,0.00,,---,0.00,VWS V14.01,2013-04-11 10:18:00,
2013-04-11 03:23:00,39.4,29.7,30.00,SW,225,5.6,5.6,68,0.00,,---,0.00,VWS V14.01,2013-04-11 10:23:00,
2013-04-11 03:28:00,39.2,29.5,30.00,SW,225,3.4,3.4,68,0.00,,---,0.00,VWS V14.01,2013-04-11 10:28:00,
2013-04-11 03:33:00,39.2,29.5,30.00,SSE,158,1.6,1.6,68,0.00,,---,0.00,VWS V14.01,2013-04-11 10:33:00,
2013-04-11 03:39:00,39.2,29.5,30.00,East,90,3.6,3.6,68,0.00,,---,0.00,VWS V14.01,2013-04-11 10:39:00,
2013-04-11 03:44:00,39.2,29.9,30.00,SW,225,5.4,5.4,69,0.00,,---,0.00,VWS V14.01,2013-04-11 10:44:00,
2013-04-11 03:49:00,39.2,29.9,30.00,SSW,202,4.0,4.0,69,0.00,,---,0.00,VWS V14.01,2013-04-11 10:49:00,
2013-04-11 03:54:00,39.0,29.7,30.03,SSW,202,10.5,10.5,69,0.00,,---,0.00,VWS V14.01,2013-04-11 10:54:00,
2013-04-11 03:59:00,39.2,29.9,30.03,SW,225,3.8,3.8,69,0.00,,---,0.00,VWS V14.01,2013-04-11 10:59:00,
2013-04-11 04:04:00,39.0,29.7,30.03,South,180,4.0,4.0,69,0.00,,---,0.00,VWS V14.01,2013-04-11 11:04:00,
2013-04-11 04:09:00,38.8,29.5,30.00,South,180,1.3,1.3,69,0.00,,---,0.00,VWS V14.01,2013-04-11 11:09:00,
2013-04-11 04:14:00,38.8,29.9,30.00,WSW,248,2.9,2.9,70,0.00,,---,0.00,VWS V14.01,2013-04-11 11:14:00,
2013-04-11 04:19:00,38.7,30.1,30.00,South,180,7.6,7.6,71,0.00,,---,0.00,VWS V14.01,2013-04-11 11:19:00,
2013-04-11 04:24:00,38.5,29.6,30.00,WSW,248,2.7,2.7,70,0.00,,---,0.00,VWS V14.01,2013-04-11 11:24:00,
2013-04-11 04:29:00,38.5,29.9,30.00,SE,135,2.5,2.5,71,0.00,,---,0.00,VWS V14.01,2013-04-11 11:29:00,
2013-04-11 04:34:00,38.3,30.1,30.00,SW,225,5.8,5.8,72,0.00,,---,0.00,VWS V14.01,2013-04-11 11:34:00,
2013-04-11 04:39:00,38.3,29.7,30.00,SSE,158,5.4,5.4,71,0.00,,---,0.00,VWS V14.01,2013-04-11 11:39:00,
2013-04-11 04:48:00,38.3,29.7,30.00,SE,135,7.2,7.2,71,0.00,,---,0.00,VWS V14.01,2013-04-11 11:48:00,
2013-04-11 04:53:00,38.1,29.6,30.00,WSW,248,5.8,5.8,71,0.00,,---,0.00,VWS V14.01,2013-04-11 11:53:00,
2013-04-11 04:58:00,38.1,29.2,30.00,South,180,3.6,3.6,70,0.00,,---,0.00,VWS V14.01,2013-04-11 11:58:00,
2013-04-11 05:03:00,38.1,29.2,30.00,SSW,202,1.1,1.1,70,0.00,,---,0.00,VWS V14.01,2013-04-11 12:03:00,
2013-04-11 05:08:00,37.9,29.0,30.00,WNW,292,2.5,2.5,70,0.00,,---,0.00,VWS V14.01,2013-04-11 12:08:00,
2013-04-11 05:13:00,37.9,29.4,30.00,West,270,2.0,2.0,71,0.00,,---,0.00,VWS V14.01,2013-04-11 12:13:00,
2013-04-11 05:18:00,37.8,29.6,30.00,NW,315,3.6,3.6,72,0.00,,---,0.00,VWS V14.01,2013-04-11 12:18:00,
2013-04-11 05:23:00,37.8,29.6,30.03,SSW,202,4.3,4.3,72,0.00,,---,0.00,VWS V14.01,2013-04-11 12:23:00,
2013-04-11 05:29:00,37.8,29.9,30.03,SW,225,3.8,3.8,73,0.00,,---,0.00,VWS V14.01,2013-04-11 12:29:00,
2013-04-11 05:34:00,37.6,29.4,30.03,SSW,202,4.0,4.0,72,0.00,,---,0.00,VWS V14.01,2013-04-11 12:34:00,
2013-04-11 05:39:00,37.6,29.4,29.97,SSW,202,3.6,3.6,72,0.00,,---,0.00,VWS V14.01,2013-04-11 12:39:00,
2013-04-11 05:44:00,37.6,29.7,29.97,SW,225,5.6,5.6,73,0.00,,---,0.00,VWS V14.01,2013-04-11 12:44:00,
2013-04-11 05:51:00,37.6,29.4,29.97,SSW,202,0.0,0.0,72,0.00,,---,0.00,VWS V14.01,2013-04-11 12:51:00,
2013-04-11 05:56:00,37.4,29.2,30.00,SW,225,2.0,2.0,72,0.00,,---,0.00,VWS V14.01,2013-04-11 12:56:00,
2013-04-11 06:02:00,37.6,29.4,30.00,SE,135,3.4,3.4,72,0.00,,---,0.00,VWS V14.01,2013-04-11 13:02:00,
2013-04-11 06:07:00,37.6,29.4,30.00,NNW,338,0.0,0.0,72,0.00,,---,0.00,VWS V14.01,2013-04-11 13:07:00,
2013-04-11 06:12:00,37.6,29.4,30.00,North,0,2.0,2.0,72,0.00,,---,0.00,VWS V14.01,2013-04-11 13:12:00,
2013-04-11 06:17:00,37.4,29.2,30.00,WSW,248,2.0,2.0,72,0.00,,---,0.00,VWS V14.01,2013-04-11 13:17:00,
2013-04-11 06:22:00,37.6,29.7,30.00,SE,135,3.4,3.4,73,0.00,,---,0.00,VWS V14.01,2013-04-11 13:22:00,
2013-04-11 06:27:00,37.6,29.7,30.00,SSW,202,4.5,4.5,73,0.00,,---,0.00,VWS V14.01,2013-04-11 13:27:00,
2013-04-11 06:32:00,37.6,29.7,30.00,SSW,202,2.9,2.9,73,0.00,,---,0.00,VWS V14.01,2013-04-11 13:32:00,
2013-04-11 06:37:00,37.6,29.4,30.00,North,0,2.7,2.7,72,0.00,,---,0.00,VWS V14.01,2013-04-11 13:37:00,
2013-04-11 06:42:00,37.9,30.1,30.00,SW,225,4.3,4.3,73,0.00,,---,0.00,VWS V14.01,2013-04-11 13:42:00,
2013-04-11 06:47:00,38.5,30.6,30.00,WNW,292,0.0,0.0,73,0.00,,---,0.00,VWS V14.01,2013-04-11 13:47:00,
2013-04-11 06:52:00,38.7,30.4,30.00,East,90,0.0,0.0,72,0.00,,---,0.00,VWS V14.01,2013-04-11 13:52:00,
2013-04-11 06:57:00,39.6,31.0,30.00,NNW,338,1.6,1.6,71,0.00,,---,0.00,VWS V14.01,2013-04-11 13:57:00,
2013-04-11 07:02:00,39.9,30.9,30.00,WNW,292,0.9,0.9,70,0.00,,---,0.00,VWS V14.01,2013-04-11 14:02:00,
2013-04-11 07:07:00,40.5,30.8,30.03,SW,225,1.3,1.3,68,0.00,,---,0.00,VWS V14.01,2013-04-11 14:07:00,
2013-04-11 07:12:00,40.8,31.1,30.03,WSW,248,3.4,3.4,68,0.00,,---,0.00,VWS V14.01,2013-04-11 14:12:00,
2013-04-11 07:17:00,40.6,30.2,30.03,SE,135,2.5,2.5,66,0.00,,---,0.00,VWS V14.01,2013-04-11 14:17:00,
2013-04-11 07:22:00,40.8,30.0,30.03,NW,315,3.8,3.8,65,0.00,,---,0.00,VWS V14.01,2013-04-11 14:22:00,
2013-04-11 07:27:00,40.6,29.8,30.03,South,180,3.6,3.6,65,0.00,,---,0.00,VWS V14.01,2013-04-11 14:27:00,
2013-04-11 07:32:00,41.2,29.9,30.03,NNW,338,3.8,3.8,64,0.00,,---,0.00,VWS V14.01,2013-04-11 14:32:00,
2013-04-11 07:38:00,41.5,30.3,30.03,SW,225,5.6,5.6,64,0.00,,---,0.00,VWS V14.01,2013-04-11 14:38:00,
2013-04-11 07:43:00,41.9,30.2,30.03,WSW,248,3.6,3.6,63,0.00,,---,0.00,VWS V14.01,2013-04-11 14:43:00,
2013-04-11 07:48:00,42.6,30.9,30.03,West,270,1.6,1.6,63,0.00,,---,0.00,VWS V14.01,2013-04-11 14:48:00,
2013-04-11 07:53:00,43.0,29.6,30.06,WNW,292,4.9,4.9,59,0.00,,---,0.00,VWS V14.01,2013-04-11 14:53:00,
2013-04-11 07:58:00,43.0,29.2,30.06,West,270,7.2,7.2,58,0.00,,---,0.00,VWS V14.01,2013-04-11 14:58:00,
2013-04-11 08:03:00,43.2,29.0,30.06,WSW,248,5.8,5.8,57,0.00,,---,0.00,VWS V14.01,2013-04-11 15:03:00,
2013-04-11 08:08:00,43.3,28.7,30.06,SW,225,6.0,6.0,56,0.00,,---,0.00,VWS V14.01,2013-04-11 15:08:00,
2013-04-11 08:13:00,43.7,29.0,30.06,WSW,248,4.9,4.9,56,0.00,,---,0.00,VWS V14.01,2013-04-11 15:13:00,
2013-04-11 08:18:00,44.6,29.9,30.06,WSW,248,7.8,7.8,56,0.00,,---,0.00,VWS V14.01,2013-04-11 15:18:00,
2013-04-11 08:23:00,44.2,29.1,30.03,SSE,158,7.2,7.2,55,0.00,,---,0.00,VWS V14.01,2013-04-11 15:23:00,
2013-04-11 08:28:00,44.2,29.1,30.03,WSW,248,2.9,2.9,55,0.00,,---,0.00,VWS V14.01,2013-04-11 15:28:00,
2013-04-11 08:33:00,44.4,28.8,30.03,SW,225,3.4,3.4,54,0.00,,---,0.00,VWS V14.01,2013-04-11 15:33:00,
2013-04-11 08:38:00,43.7,28.2,30.03,WSW,248,4.9,4.9,54,0.00,,---,0.00,VWS V14.01,2013-04-11 15:38:00,
2013-04-11 08:43:00,44.6,29.0,30.03,WSW,248,5.4,5.4,54,0.00,,---,0.00,VWS V14.01,2013-04-11 15:43:00,
2013-04-11 08:48:00,45.3,29.2,30.03,SW,225,10.1,10.1,53,0.00,,---,0.00,VWS V14.01,2013-04-11 15:48:00,
2013-04-11 08:54:00,45.5,29.4,30.03,WSW,248,0.9,0.9,53,0.00,,---,0.00,VWS V14.01,2013-04-11 15:54:00,
2013-04-11 08:59:00,46.2,29.6,30.03,SW,225,3.6,3.6,52,0.00,,---,0.00,VWS V14.01,2013-04-11 15:59:00,
2013-04-11 09:04:00,46.2,29.1,30.03,SSE,158,7.6,7.6,51,0.00,,---,0.00,VWS V14.01,2013-04-11 16:04:00,
2013-04-11 09:09:00,46.8,29.6,30.03,SW,225,5.6,5.6,51,0.00,,---,0.00,VWS V14.01,2013-04-11 16:09:00,
2013-04-11 09:14:00,47.3,30.1,30.03,NNW,338,1.3,1.3,51,0.00,,---,0.00,VWS V14.01,2013-04-11 16:14:00,
2013-04-11 09:19:00,48.6,30.8,30.03,WSW,248,4.3,4.3,50,0.00,,---,0.00,VWS V14.01,2013-04-11 16:19:00,
2013-04-11 09:24:00,48.2,30.0,30.03,SW,225,4.0,4.0,49,0.00,,---,0.00,VWS V14.01,2013-04-11 16:24:00,
2013-04-11 09:29:00,48.7,30.5,30.03,WSW,248,3.1,3.1,49,0.00,,---,0.00,VWS V14.01,2013-04-11 16:29:00,
2013-04-11 09:34:00,48.6,29.3,30.03,SSW,202,4.7,4.7,47,0.00,,---,0.00,VWS V14.01,2013-04-11 16:34:00,
2013-04-11 09:39:00,48.4,29.1,30.06,South,180,4.0,4.0,47,0.00,,---,0.00,VWS V14.01,2013-04-11 16:39:00,
2013-04-11 09:44:00,48.6,29.8,30.06,SW,225,3.8,3.8,48,0.00,,---,0.00,VWS V14.01,2013-04-11 16:44:00,
2013-04-11 09:49:00,49.3,28.9,30.06,WSW,248,7.6,7.6,45,0.00,,---,0.00,VWS V14.01,2013-04-11 16:49:00,
2013-04-11 09:54:00,48.9,28.5,30.06,SSW,202,6.3,6.3,45,0.00,,---,0.00,VWS V14.01,2013-04-11 16:54:00,
2013-04-11 09:59:00,50.2,29.1,30.06,SW,225,5.4,5.4,44,0.00,,---,0.00,VWS V14.01,2013-04-11 16:59:00,
2013-04-11 10:04:00,50.2,28.6,30.06,WSW,248,5.4,5.4,43,0.00,,---,0.00,VWS V14.01,2013-04-11 17:04:00,
2013-04-11 10:09:00,49.5,27.9,30.06,West,270,6.0,6.0,43,0.00,,---,0.00,VWS V14.01,2013-04-11 17:09:00,
2013-04-11 10:14:00,49.8,28.2,30.06,WSW,248,6.0,6.0,43,0.00,,---,0.00,VWS V14.01,2013-04-11 17:14:00,
2013-04-11 10:20:00,50.7,29.1,30.06,WSW,248,9.8,9.8,43,0.00,,---,0.00,VWS V14.01,2013-04-11 17:20:00,
2013-04-11 10:25:00,50.2,28.0,30.06,West,270,3.8,3.8,42,0.00,,---,0.00,VWS V14.01,2013-04-11 17:25:00,
2013-04-11 10:30:00,49.8,27.7,30.06,WSW,248,3.4,3.4,42,0.00,,---,0.00,VWS V14.01,2013-04-11 17:30:00,
2013-04-11 10:35:00,50.0,27.2,30.06,WSW,248,3.8,3.8,41,0.00,,---,0.00,VWS V14.01,2013-04-11 17:35:00,
2013-04-11 10:40:00,49.8,27.1,30.06,WSW,248,10.1,10.1,41,0.00,,---,0.00,VWS V14.01,2013-04-11 17:40:00,
2013-04-11 10:45:00,49.5,26.8,30.06,WSW,248,7.2,7.2,41,0.00,,---,0.00,VWS V14.01,2013-04-11 17:45:00,
2013-04-11 10:50:00,49.8,27.7,30.06,WSW,248,3.6,3.6,42,0.00,,---,0.00,VWS V14.01,2013-04-11 17:50:00,
2013-04-11 10:55:00,50.4,27.6,30.06,SW,225,5.8,5.8,41,0.00,,---,0.00,VWS V14.01,2013-04-11 17:55:00,
2013-04-11 11:00:00,50.2,27.4,30.06,WSW,248,7.6,7.6,41,0.00,,---,0.00,VWS V14.01,2013-04-11 18:00:00,
2013-04-11 11:05:00,50.2,27.4,30.06,West,270,7.6,7.6,41,0.00,,---,0.00,VWS V14.01,2013-04-11 18:05:00,
2013-04-11 11:10:00,50.0,27.2,30.06,West,270,7.8,7.8,41,0.00,,---,0.00,VWS V14.01,2013-04-11 18:10:00,
2013-04-11 11:15:00,50.2,26.8,30.06,SSW,202,7.4,7.4,40,0.00,,---,0.00,VWS V14.01,2013-04-11 18:15:00,
2013-04-11 11:20:00,50.5,27.7,30.06,NW,315,8.1,8.1,41,0.00,,---,0.00,VWS V14.01,2013-04-11 18:20:00,
2013-04-11 11:25:00,50.7,27.9,30.06,SW,225,8.1,8.1,41,0.00,,---,0.00,VWS V14.01,2013-04-11 18:25:00,
2013-04-11 11:31:00,50.9,28.1,30.06,WSW,248,8.1,8.1,41,0.00,,---,0.00,VWS V14.01,2013-04-11 18:31:00,
2013-04-11 11:36:00,51.4,27.9,30.06,WSW,248,6.5,6.5,40,0.00,,---,0.00,VWS V14.01,2013-04-11 18:36:00,
2013-04-11 11:41:00,51.3,27.8,30.03,WSW,248,8.1,8.1,40,0.00,,---,0.00,VWS V14.01,2013-04-11 18:41:00,
2013-04-11 11:46:00,51.3,27.8,30.03,SW,225,11.0,11.0,40,0.00,,---,0.00,VWS V14.01,2013-04-11 18:46:00,
2013-04-11 11:51:00,51.6,28.1,30.06,SW,225,6.7,6.7,40,0.00,,---,0.00,VWS V14.01,2013-04-11 18:51:00,
2013-04-11 11:56:00,51.1,27.6,30.06,West,270,4.9,4.9,40,0.00,,---,0.00,VWS V14.01,2013-04-11 18:56:00,
2013-04-11 12:02:00,52.2,28.0,30.06,WSW,248,6.9,6.9,39,0.00,,---,0.00,VWS V14.01,2013-04-11 19:02:00,
2013-04-11 12:07:00,51.6,28.1,30.03,WSW,248,9.8,9.8,40,0.00,,---,0.00,VWS V14.01,2013-04-11 19:07:00,
2013-04-11 12:12:00,52.0,27.8,30.03,SSW,202,7.6,7.6,39,0.00,,---,0.00,VWS V14.01,2013-04-11 19:12:00,
2013-04-11 12:17:00,52.3,28.1,30.03,SW,225,5.4,5.4,39,0.00,,---,0.00,VWS V14.01,2013-04-11 19:17:00,
2013-04-11 12:22:00,53.1,28.1,30.03,SW,225,9.6,9.6,38,0.00,,---,0.00,VWS V14.01,2013-04-11 19:22:00,
2013-04-11 12:27:00,51.6,27.5,30.03,WSW,248,3.1,3.1,39,0.00,,---,0.00,VWS V14.01,2013-04-11 19:27:00,
2013-04-11 12:32:00,51.6,27.5,30.03,West,270,7.8,7.8,39,0.00,,---,0.00,VWS V14.01,2013-04-11 19:32:00,
2013-04-11 12:37:00,51.8,27.6,30.03,WSW,248,7.6,7.6,39,0.00,,---,0.00,VWS V14.01,2013-04-11 19:37:00,
2013-04-11 12:42:00,51.8,27.6,30.03,NW,315,6.5,6.5,39,0.00,,---,0.00,VWS V14.01,2013-04-11 19:42:00,
2013-04-11 12:48:00,52.2,28.0,30.03,WSW,248,5.6,5.6,39,0.00,,---,0.00,VWS V14.01,2013-04-11 19:48:00,
2013-04-11 12:53:00,52.3,28.1,30.00,SW,225,9.0,9.0,39,0.00,,---,0.00,VWS V14.01,2013-04-11 19:53:00,
2013-04-11 12:58:00,52.7,28.5,30.00,South,180,4.3,4.3,39,0.00,,---,0.00,VWS V14.01,2013-04-11 19:58:00,
2013-04-11 13:03:00,54.3,29.3,30.00,SSW,202,3.4,3.4,38,0.00,,---,0.00,VWS V14.01,2013-04-11 20:03:00,
2013-04-11 13:08:00,56.1,30.2,30.00,WSW,248,6.0,6.0,37,0.00,,---,0.00,VWS V14.01,2013-04-11 20:08:00,
2013-04-11 13:13:00,55.0,28.6,30.00,WNW,292,6.0,6.0,36,0.00,,---,0.00,VWS V14.01,2013-04-11 20:13:00,
2013-04-11 13:18:00,57.0,29.7,30.00,WSW,248,3.4,3.4,35,0.00,,---,0.00,VWS V14.01,2013-04-11 20:18:00,
2013-04-11 13:23:00,55.2,28.1,30.00,West,270,7.4,7.4,35,0.00,,---,0.00,VWS V14.01,2013-04-11 20:23:00,
2013-04-11 13:28:00,57.0,29.7,30.00,WSW,248,5.6,5.6,35,0.00,,---,0.00,VWS V14.01,2013-04-11 20:28:00,
2013-04-11 13:33:00,57.2,29.1,30.00,West,270,10.7,10.7,34,0.00,,---,0.00,VWS V14.01,2013-04-11 20:33:00,
2013-04-11 13:38:00,56.5,27.8,30.00,WSW,248,4.7,4.7,33,0.00,,---,0.00,VWS V14.01,2013-04-11 20:38:00,
2013-04-11 13:43:00,55.6,27.0,30.00,SW,225,6.5,6.5,33,0.00,,---,0.00,VWS V14.01,2013-04-11 20:43:00,
2013-04-11 13:48:00,56.3,27.6,30.00,WSW,248,5.6,5.6,33,0.00,,---,0.00,VWS V14.01,2013-04-11 20:48:00,
2013-04-11 13:53:00,55.0,27.2,30.03,WSW,248,7.8,7.8,34,0.00,,---,0.00,VWS V14.01,2013-04-11 20:53:00,
2013-04-11 13:58:00,55.0,27.2,30.03,SSE,158,2.9,2.9,34,0.00,,---,0.00,VWS V14.01,2013-04-11 20:58:00,
2013-04-11 14:03:00,54.7,26.9,30.03,West,270,2.5,2.5,34,0.00,,---,0.00,VWS V14.01,2013-04-11 21:03:00,
2013-04-11 14:08:00,54.5,26.7,30.00,WSW,248,12.1,12.1,34,0.00,,---,0.00,VWS V14.01,2013-04-11 21:08:00,
2013-04-11 14:13:00,54.5,26.0,30.00,WSW,248,4.9,4.9,33,0.00,,---,0.00,VWS V14.01,2013-04-11 21:13:00,
2013-04-11 14:18:00,55.4,26.0,30.00,SW,225,5.6,5.6,32,0.00,,---,0.00,VWS V14.01,2013-04-11 21:18:00,
2013-04-11 14:24:00,54.9,26.3,29.97,NW,315,4.0,4.0,33,0.00,,---,0.00,VWS V14.01,2013-04-11 21:24:00,
2013-04-11 14:29:00,54.5,25.3,29.97,West,270,3.1,3.1,32,0.00,,---,0.00,VWS V14.01,2013-04-11 21:29:00,
2013-04-11 14:34:00,54.5,25.3,29.97,West,270,7.6,7.6,32,0.00,,---,0.00,VWS V14.01,2013-04-11 21:34:00,
2013-04-11 14:39:00,56.7,27.2,30.00,WSW,248,4.9,4.9,32,0.00,,---,0.00,VWS V14.01,2013-04-11 21:39:00,
2013-04-11 14:44:00,56.7,25.6,30.00,West,270,3.4,3.4,30,0.00,,---,0.00,VWS V14.01,2013-04-11 21:44:00,
2013-04-11 14:49:00,56.3,25.3,30.00,West,270,5.6,5.6,30,0.00,,---,0.00,VWS V14.01,2013-04-11 21:49:00,
2013-04-11 14:54:00,55.6,23.9,30.00,WSW,248,5.4,5.4,29,0.00,,---,0.00,VWS V14.01,2013-04-11 21:54:00,
2013-04-11 14:59:00,56.5,24.6,30.00,NW,315,1.6,1.6,29,0.00,,---,0.00,VWS V14.01,2013-04-11 21:59:00,
2013-04-11 15:04:00,56.3,24.5,30.00,WNW,292,3.8,3.8,29,0.00,,---,0.00,VWS V14.01,2013-04-11 22:04:00,
2013-04-11 15:09:00,55.0,23.4,30.00,West,270,6.3,6.3,29,0.00,,---,0.00,VWS V14.01,2013-04-11 22:09:00,
2013-04-11 15:14:00,54.5,23.7,30.00,West,270,4.7,4.7,30,0.00,,---,0.00,VWS V14.01,2013-04-11 22:14:00,
2013-04-11 15:19:00,54.7,23.9,30.00,NW,315,2.9,2.9,30,0.00,,---,0.00,VWS V14.01,2013-04-11 22:19:00,
2013-04-11 15:24:00,54.9,24.0,30.00,WNW,292,3.1,3.1,30,0.00,,---,0.00,VWS V14.01,2013-04-11 22:24:00,
2013-04-11 15:29:00,55.4,23.7,30.00,WSW,248,1.3,1.3,29,0.00,,---,0.00,VWS V14.01,2013-04-11 22:29:00,
2013-04-11 15:35:00,56.5,24.6,30.00,South,180,10.7,10.7,29,0.00,,---,0.00,VWS V14.01,2013-04-11 22:35:00,
2013-04-11 15:40:00,56.3,23.6,30.00,West,270,5.4,5.4,28,0.00,,---,0.00,VWS V14.01,2013-04-11 22:40:00,
2013-04-11 15:45:00,57.2,24.4,30.00,WSW,248,7.8,7.8,28,0.00,,---,0.00,VWS V14.01,2013-04-11 22:45:00,
2013-04-11 15:50:00,57.4,23.7,30.00,SSW,202,6.9,6.9,27,0.00,,---,0.00,VWS V14.01,2013-04-11 22:50:00,
2013-04-11 15:55:00,56.8,24.1,29.97,WSW,248,3.1,3.1,28,0.00,,---,0.00,VWS V14.01,2013-04-11 22:55:00,
2013-04-11 16:00:00,56.1,23.5,29.97,WNW,292,3.4,3.4,28,0.00,,---,0.00,VWS V14.01,2013-04-11 23:00:00,
2013-04-11 16:05:00,55.9,23.3,29.97,West,270,4.0,4.0,28,0.00,,---,0.00,VWS V14.01,2013-04-11 23:05:00,
2013-04-11 16:10:00,58.5,25.5,29.97,WNW,292,5.6,5.6,28,0.00,,---,0.00,VWS V14.01,2013-04-11 23:10:00,
2013-04-11 16:15:00,57.9,24.2,29.97,West,270,10.3,10.3,27,0.00,,---,0.00,VWS V14.01,2013-04-11 23:15:00,
2013-04-11 16:20:00,58.8,24.9,29.97,WSW,248,7.6,7.6,27,0.00,,---,0.00,VWS V14.01,2013-04-11 23:20:00,
2013-04-11 16:25:00,59.5,25.5,29.97,NW,315,6.0,6.0,27,0.00,,---,0.00,VWS V14.01,2013-04-11 23:25:00,
2013-04-11 16:30:00,59.7,24.8,29.97,West,270,5.4,5.4,26,0.00,,---,0.00,VWS V14.01,2013-04-11 23:30:00,
2013-04-11 16:35:00,59.2,24.3,29.97,West,270,9.8,9.8,26,0.00,,---,0.00,VWS V14.01,2013-04-11 23:35:00,
2013-04-11 16:40:00,58.5,23.7,30.00,WSW,248,9.8,9.8,26,0.00,,---,0.00,VWS V14.01,2013-04-11 23:40:00,
2013-04-11 16:45:00,58.3,23.6,30.00,WNW,292,5.6,5.6,26,0.00,,---,0.00,VWS V14.01,2013-04-11 23:45:00,
2013-04-11 16:50:00,58.5,23.7,30.00,West,270,8.7,8.7,26,0.00,,---,0.00,VWS V14.01,2013-04-11 23:50:00,
2013-04-11 16:55:00,58.5,23.7,30.00,WSW,248,2.2,2.2,26,0.00,,---,0.00,VWS V14.01,2013-04-11 23:55:00,
2013-04-11 17:00:00,57.2,22.6,30.00,WSW,248,1.6,1.6,26,0.00,,---,0.00,VWS V14.01,2013-04-12 00:00:00,
2013-04-11 17:05:00,56.8,23.2,30.00,WNW,292,2.7,2.7,27,0.00,,---,0.00,VWS V14.01,2013-04-12 00:05:00,
2013-04-11 17:10:00,55.9,22.5,29.97,West,270,5.8,5.8,27,0.00,,---,0.00,VWS V14.01,2013-04-12 00:10:00,
2013-04-11 17:15:00,56.1,23.5,29.97,WSW,248,2.9,2.9,28,0.00,,---,0.00,VWS V14.01,2013-04-12 00:15:00,
2013-04-11 17:21:00,56.1,22.6,29.97,WSW,248,5.8,5.8,27,0.00,,---,0.00,VWS V14.01,2013-04-12 00:21:00,
2013-04-11 17:26:00,55.6,23.0,29.97,WSW,248,3.4,3.4,28,0.00,,---,0.00,VWS V14.01,2013-04-12 00:26:00,
2013-04-11 17:31:00,55.9,23.3,29.97,West,270,8.5,8.5,28,0.00,,---,0.00,VWS V14.01,2013-04-12 00:31:00,
2013-04-11 17:36:00,57.2,23.5,29.97,WSW,248,0.9,0.9,27,0.00,,---,0.00,VWS V14.01,2013-04-12 00:36:00,
2013-04-11 17:41:00,57.6,23.9,29.97,West,270,5.6,5.6,27,0.00,,---,0.00,VWS V14.01,2013-04-12 00:41:00,
2013-04-11 17:47:00,56.3,22.8,29.97,West,270,6.5,6.5,27,0.00,,---,0.00,VWS V14.01,2013-04-12 00:47:00,
2013-04-11 17:52:00,56.7,23.1,29.97,West,270,7.8,7.8,27,0.00,,---,0.00,VWS V14.01,2013-04-12 00:52:00,
2013-04-11 17:57:00,56.5,22.9,29.97,WSW,248,7.4,7.4,27,0.00,,---,0.00,VWS V14.01,2013-04-12 00:57:00,
2013-04-11 18:02:00,55.9,23.3,29.97,WNW,292,4.9,4.9,28,0.00,,---,0.00,VWS V14.01,2013-04-12 01:02:00,
2013-04-11 18:07:00,55.6,23.0,29.97,SW,225,4.0,4.0,28,0.00,,---,0.00,VWS V14.01,2013-04-12 01:07:00,
2013-04-11 18:12:00,55.4,22.9,30.00,West,270,4.3,4.3,28,0.00,,---,0.00,VWS V14.01,2013-04-12 01:12:00,
2013-04-11 18:17:00,55.0,23.4,30.00,WSW,248,6.0,6.0,29,0.00,,---,0.00,VWS V14.01,2013-04-12 01:17:00,
2013-04-11 18:22:00,54.5,22.9,30.00,SW,225,5.6,5.6,29,0.00,,---,0.00,VWS V14.01,2013-04-12 01:22:00,
2013-04-11 18:27:00,54.1,22.6,30.00,WSW,248,3.6,3.6,29,0.00,,---,0.00,VWS V14.01,2013-04-12 01:27:00,
2013-04-11 18:32:00,54.5,22.9,30.00,SSW,202,5.8,5.8,29,0.00,,---,0.00,VWS V14.01,2013-04-12 01:32:00,
2013-04-11 18:37:00,55.2,24.4,30.00,WNW,292,6.0,6.0,30,0.00,,---,0.00,VWS V14.01,2013-04-12 01:37:00,
2013-04-11 18:42:00,55.9,24.2,30.00,WSW,248,1.6,1.6,29,0.00,,---,0.00,VWS V14.01,2013-04-12 01:42:00,
2013-04-11 18:47:00,55.0,23.4,30.00,West,270,3.4,3.4,29,0.00,,---,0.00,VWS V14.01,2013-04-12 01:47:00,
2013-04-11 18:53:00,54.7,23.9,29.97,SSW,202,7.4,7.4,30,0.00,,---,0.00,VWS V14.01,2013-04-12 01:53:00,
2013-04-11 18:58:00,54.9,24.0,29.97,SSW,202,5.8,5.8,30,0.00,,---,0.00,VWS V14.01,2013-04-12 01:58:00,
2013-04-11 19:03:00,54.3,23.6,29.97,SSW,202,2.9,2.9,30,0.00,,---,0.00,VWS V14.01,2013-04-12 02:03:00,
2013-04-11 19:08:00,53.6,22.9,30.00,SW,225,8.1,8.1,30,0.00,,---,0.00,VWS V14.01,2013-04-12 02:08:00,
2013-04-11 19:13:00,53.1,23.2,30.00,WSW,248,6.3,6.3,31,0.00,,---,0.00,VWS V14.01,2013-04-12 02:13:00,
2013-04-11 19:18:00,52.7,22.9,30.00,WSW,248,2.9,2.9,31,0.00,,---,0.00,VWS V14.01,2013-04-12 02:18:00,
2013-04-11 19:23:00,52.5,22.8,30.00,SW,225,1.1,1.1,31,0.00,,---,0.00,VWS V14.01,2013-04-12 02:23:00,
2013-04-11 19:28:00,52.0,23.1,30.00,SW,225,2.0,2.0,32,0.00,,---,0.00,VWS V14.01,2013-04-12 02:28:00,
2013-04-11 19:33:00,51.6,22.7,30.00,WSW,248,2.0,2.0,32,0.00,,---,0.00,VWS V14.01,2013-04-12 02:33:00,
2013-04-11 19:38:00,51.4,23.3,29.97,WSW,248,0.9,0.9,33,0.00,,---,0.00,VWS V14.01,2013-04-12 02:38:00,
2013-04-11 19:43:00,50.9,22.8,29.97,SW,225,1.3,1.3,33,0.00,,---,0.00,VWS V14.01,2013-04-12 02:43:00,
2013-04-11 19:48:00,50.4,23.1,29.97,SW,225,1.3,1.3,34,0.00,,---,0.00,VWS V14.01,2013-04-12 02:48:00,
2013-04-11 19:53:00,50.2,23.6,30.00,SW,225,2.9,2.9,35,0.00,,---,0.00,VWS V14.01,2013-04-12 02:53:00,
2013-04-11 19:58:00,50.0,24.1,30.00,SW,225,1.6,1.6,36,0.00,,---,0.00,VWS V14.01,2013-04-12 02:58:00,
2013-04-11 20:03:00,49.8,24.6,30.00,SW,225,2.7,2.7,37,0.00,,---,0.00,VWS V14.01,2013-04-12 03:03:00,
2013-04-11 20:09:00,49.6,24.5,30.00,WSW,248,0.0,0.0,37,0.00,,---,0.00,VWS V14.01,2013-04-12 03:09:00,
2013-04-11 20:14:00,49.6,24.5,30.00,SW,225,3.4,3.4,37,0.00,,---,0.00,VWS V14.01,2013-04-12 03:14:00,
2013-04-11 20:19:00,49.8,24.6,30.00,SW,225,3.6,3.6,37,0.00,,---,0.00,VWS V14.01,2013-04-12 03:19:00,
2013-04-11 20:24:00,49.8,24.6,30.00,SW,225,0.0,0.0,37,0.00,,---,0.00,VWS V14.01,2013-04-12 03:24:00,
2013-04-11 20:29:00,49.6,24.5,30.00,SSW,202,0.0,0.0,37,0.00,,---,0.00,VWS V14.01,2013-04-12 03:29:00,
2013-04-11 20:34:00,49.5,24.3,30.00,SSW,202,2.9,2.9,37,0.00,,---,0.00,VWS V14.01,2013-04-12 03:34:00,
2013-04-11 20:39:00,49.5,24.3,30.00,South,180,4.9,4.9,37,0.00,,---,0.00,VWS V14.01,2013-04-12 03:39:00,
2013-04-11 20:44:00,49.5,24.3,30.00,SSW,202,3.6,3.6,37,0.00,,---,0.00,VWS V14.01,2013-04-12 03:44:00,
2013-04-11 20:49:00,49.1,24.0,30.00,SSW,202,1.6,1.6,37,0.00,,---,0.00,VWS V14.01,2013-04-12 03:49:00,
2013-04-11 20:54:00,48.9,23.8,30.00,SW,225,2.2,2.2,37,0.00,,---,0.00,VWS V14.01,2013-04-12 03:54:00,
2013-04-11 20:59:00,48.7,23.6,30.00,South,180,2.5,2.5,37,0.00,,---,0.00,VWS V14.01,2013-04-12 03:59:00,
2013-04-11 21:00:00,48.7,23.6,30.00,SSW,202,4.3,4.3,37,0.00,,---,0.00,VWS V14.01,2013-04-12 04:00:00,
2013-04-11 21:04:00,48.9,23.8,30.00,SW,225,7.6,7.6,37,0.00,,---,0.00,VWS V14.01,2013-04-12 04:04:00,
2013-04-11 21:09:00,48.9,23.8,30.00,SW,225,2.9,2.9,37,0.00,,---,0.00,VWS V14.01,2013-04-12 04:09:00,
2013-04-11 21:14:00,48.7,23.6,30.00,South,180,3.8,3.8,37,0.00,,---,0.00,VWS V14.01,2013-04-12 04:14:00,
2013-04-11 21:19:00,48.7,23.6,30.00,SSW,202,1.6,1.6,37,0.00,,---,0.00,VWS V14.01,2013-04-12 04:19:00,
2013-04-11 21:24:00,48.6,23.5,30.00,NNW,338,2.0,2.0,37,0.00,,---,0.00,VWS V14.01,2013-04-12 04:24:00,
2013-04-11 21:30:00,48.4,23.3,30.00,NNW,338,2.9,2.9,37,0.00,,---,0.00,VWS V14.01,2013-04-12 04:30:00,
2013-04-11 21:35:00,48.2,23.2,30.00,North,0,0.0,0.0,37,0.00,,---,0.00,VWS V14.01,2013-04-12 04:35:00,
2013-04-11 21:40:00,48.0,23.0,30.00,West,270,1.6,1.6,37,0.00,,---,0.00,VWS V14.01,2013-04-12 04:40:00,
2013-04-11 21:45:00,48.0,23.6,30.00,East,90,2.5,2.5,38,0.00,,---,0.00,VWS V14.01,2013-04-12 04:45:00,
2013-04-11 21:50:00,47.3,23.0,30.00,WSW,248,3.8,3.8,38,0.00,,---,0.00,VWS V14.01,2013-04-12 04:50:00,
2013-04-11 21:55:00,47.3,23.0,30.03,West,270,4.9,4.9,38,0.00,,---,0.00,VWS V14.01,2013-04-12 04:55:00,
2013-04-11 22:00:00,47.3,23.6,30.03,West,270,4.3,4.3,39,0.00,,---,0.00,VWS V14.01,2013-04-12 05:00:00,
2013-04-11 22:05:00,46.9,23.9,30.03,SSW,202,2.5,2.5,40,0.00,,---,0.00,VWS V14.01,2013-04-12 05:05:00,
2013-04-11 22:10:00,46.6,23.6,30.03,SW,225,3.6,3.6,40,0.00,,---,0.00,VWS V14.01,2013-04-12 05:10:00,
2013-04-11 22:15:00,46.0,23.7,30.03,WSW,248,0.0,0.0,41,0.00,,---,0.00,VWS V14.01,2013-04-12 05:15:00,
2013-04-11 22:20:00,45.5,23.8,30.03,SW,225,1.6,1.6,42,0.00,,---,0.00,VWS V14.01,2013-04-12 05:20:00,
2013-04-11 22:25:00,45.1,24.0,30.03,SSE,158,1.6,1.6,43,0.00,,---,0.00,VWS V14.01,2013-04-12 05:25:00,
2013-04-11 22:30:00,44.6,24.0,30.03,SSW,202,0.9,0.9,44,0.00,,---,0.00,VWS V14.01,2013-04-12 05:30:00,
2013-04-11 22:35:00,44.2,24.3,30.03,SW,225,0.0,0.0,45,0.00,,---,0.00,VWS V14.01,2013-04-12 05:35:00,
2013-04-11 22:40:00,44.2,25.3,30.03,South,180,3.4,3.4,47,0.00,,---,0.00,VWS V14.01,2013-04-12 05:40:00,
2013-04-11 22:45:00,44.2,25.8,30.03,SSW,202,4.0,4.0,48,0.00,,---,0.00,VWS V14.01,2013-04-12 05:45:00,
2013-04-11 22:50:00,44.1,25.6,30.03,West,270,0.0,0.0,48,0.00,,---,0.00,VWS V14.01,2013-04-12 05:50:00,
2013-04-11 22:56:00,43.7,24.8,30.00,SW,225,0.0,0.0,47,0.00,,---,0.00,VWS V14.01,2013-04-12 05:56:00,
2013-04-11 23:01:00,43.7,25.8,30.00,South,180,2.5,2.5,49,0.00,,---,0.00,VWS V14.01,2013-04-12 06:01:00,
2013-04-11 23:06:00,43.7,25.3,30.00,SW,225,2.0,2.0,48,0.00,,---,0.00,VWS V14.01,2013-04-12 06:06:00,
2013-04-11 23:11:00,43.5,25.6,30.00,SSW,202,0.0,0.0,49,0.00,,---,0.00,VWS V14.01,2013-04-12 06:11:00,
2013-04-11 23:16:00,43.5,25.6,30.00,SW,225,0.9,0.9,49,0.00,,---,0.00,VWS V14.01,2013-04-12 06:16:00,
2013-04-11 23:21:00,43.5,25.6,30.03,South,180,3.6,3.6,49,0.00,,---,0.00,VWS V14.01,2013-04-12 06:21:00,
2013-04-11 23:26:00,43.2,25.3,30.03,ESE,112,2.5,2.5,49,0.00,,---,0.00,VWS V14.01,2013-04-12 06:26:00,
2013-04-11 23:31:00,42.8,24.5,30.03,East,90,2.5,2.5,48,0.00,,---,0.00,VWS V14.01,2013-04-12 06:31:00,
2013-04-11 23:36:00,42.1,24.3,30.00,East,90,2.7,2.7,49,0.00,,---,0.00,VWS V14.01,2013-04-12 06:36:00,
2013-04-11 23:41:00,41.5,24.3,30.00,NE,45,0.0,0.0,50,0.00,,---,0.00,VWS V14.01,2013-04-12 06:41:00,
2013-04-11 23:46:00,41.5,24.8,30.00,ENE,68,0.0,0.0,51,0.00,,---,0.00,VWS V14.01,2013-04-12 06:46:00,
2013-04-11 23:52:00,41.0,23.8,30.03,South,180,0.0,0.0,50,0.00,,---,0.00,VWS V14.01,2013-04-12 06:52:00,
2013-04-11 23:57:00,40.5,23.8,30.03,North,0,0.0,0.0,51,0.00,,---,0.00,VWS V14.01,2013-04-12 06:57:00,